Change the Weather History Date:

Thursday, February 6, 2014

  Actual Average Record
Temperature  
Mean Temperature 57 °F 57 °F  
Max Temperature 60 °F 64 °F 84 °F (1987)
Min Temperature 53 °F 50 °F 35 °F (1989)
Degree Days  
Heating Degree Days 8 8  
Month to date heating degree days 53 48  
Since 1 July heating degree days 467 752  
Cooling Degree Days 0 0  
Month to date cooling degree days 0 0  
Year to date cooling degree days 16 4  
Growing Degree Days 6 (Base 50)    
Moisture  
Dew Point 49 °F    
Average Humidity 77    
Maximum Humidity 93    
Minimum Humidity 60    
Precipitation  
Precipitation 0.14 in 0.11 in 1.53 in (1950)
Month to date precipitation 0.23 0.64  
Year to date precipitation 0.23 3.35  
Since 1 July precipitation 1.27  
Sea Level Pressure  
Sea Level Pressure 30.03 in    
Wind  
Wind Speed 6 mph (ESE)    
Max Wind Speed 16 mph    
Max Gust Speed 21 mph    
Visibility 8 miles    
Events Rain    
T = Trace of Precipitation, MM = Missing Value Source: NWS Daily Summary

Daily Weather History Graph

Daily Weather History Graph

Search for Another Location

Airport or City:

Trip Planner

Search our weather history database for the weather conditions in past years. The results will help you decide how hot, cold, wet, or windy it might be!

Date:

Astronomy

Feb. 06, 2014 Rise Set
Actual Time 6:46 AM PST 5:29 PM PST
Civil Twilight 6:20 AM PST 5:55 PM PST
Nautical Twilight 5:50 AM PST 6:24 PM PST
Astronomical Twilight 5:21 AM PST 6:54 PM PST
Moon 11:05 AM PST (2/6) 12:06 AM PST (2/6)
Length of Visible Light 11h 34m
Length of Day
10h 42m
Waxing Crescent, 50% of the Moon is Illuminated
Feb 6
Waxing Crescent
Feb 14
Full
Feb 22
Last Quarter
Mar 1
New
Mar 8
First Quarter

Hourly Weather History & Observations

Time (PST) Temp. Dew Point Humidity Pressure Visibility Wind Dir Wind Speed Gust Speed Precip Events Conditions
12:53 AM 55.0 °F 45.0 °F 69% 30.07 in 10.0 mi East 4.6 mph - N/A   Mostly Cloudy
1:53 AM 54.0 °F 45.0 °F 72% 30.05 in 10.0 mi East 4.6 mph - N/A   Mostly Cloudy
2:53 AM 54.0 °F 45.0 °F 72% 30.04 in 10.0 mi East 4.6 mph - N/A   Mostly Cloudy
3:53 AM 54.0 °F 46.0 °F 75% 30.06 in 10.0 mi Calm Calm - N/A   Mostly Cloudy
4:53 AM 53.1 °F 46.9 °F 80% 30.04 in 10.0 mi East 4.6 mph - 0.01 in Rain Light Rain
5:53 AM 53.1 °F 46.9 °F 80% 30.04 in 10.0 mi ESE 4.6 mph - 0.00 in   Mostly Cloudy
6:53 AM 53.1 °F 46.0 °F 77% 30.04 in 10.0 mi East 4.6 mph - N/A   Mostly Cloudy
7:53 AM 54.0 °F 46.9 °F 77% 30.06 in 8.0 mi Calm Calm - N/A   Mostly Cloudy
8:53 AM 55.9 °F 48.0 °F 75% 30.06 in 8.0 mi Variable 3.5 mph - N/A   Mostly Cloudy
9:53 AM 57.9 °F 48.0 °F 70% 30.08 in 10.0 mi East 4.6 mph - N/A   Overcast
10:47 AM 57.2 °F 48.2 °F 72% 30.08 in 10.0 mi Calm Calm - N/A   Mostly Cloudy
10:53 AM 57.9 °F 48.0 °F 70% 30.07 in 9.0 mi ESE 4.6 mph - N/A   Mostly Cloudy
11:44 AM 59.0 °F 48.2 °F 67% 30.05 in 10.0 mi SE 3.5 mph - N/A   Mostly Cloudy
11:53 AM 59.0 °F 48.0 °F 67% 30.04 in 10.0 mi SE 3.5 mph - N/A   Mostly Cloudy
12:53 PM 60.1 °F 46.0 °F 60% 30.01 in 10.0 mi WSW 16.1 mph - N/A   Mostly Cloudy
1:53 PM 57.9 °F 48.0 °F 70% 29.99 in 10.0 mi West 10.4 mph - 0.00 in   Mostly Cloudy
2:53 PM 57.9 °F 46.9 °F 67% 29.99 in 10.0 mi Calm Calm - N/A   Mostly Cloudy
3:53 PM 57.0 °F 48.9 °F 74% 30.00 in 7.0 mi West 5.8 mph - 0.01 in Rain Light Rain
4:14 PM 55.4 °F 50.0 °F 82% 29.99 in 10.0 mi South 4.6 mph - 0.01 in Rain Light Rain
4:53 PM 55.9 °F 50.0 °F 80% 29.99 in 7.0 mi South 5.8 mph - 0.01 in Rain Light Rain
5:03 PM 55.4 °F 50.0 °F 82% 29.99 in 2.5 mi South 4.6 mph - 0.01 in Rain Light Rain
5:20 PM 55.4 °F 51.8 °F 88% 29.99 in 3.0 mi SSE 5.8 mph - 0.02 in Rain Light Rain
5:53 PM 54.0 °F 52.0 °F 93% 29.99 in 4.0 mi ESE 5.8 mph - 0.04 in Rain Light Rain
6:16 PM 53.6 °F 51.8 °F 94% 30.00 in 3.0 mi East 5.8 mph - 0.01 in Rain Light Rain
6:29 PM 53.6 °F 51.8 °F 94% 30.00 in 2.5 mi ENE 8.1 mph - 0.03 in Rain Rain
6:45 PM 53.6 °F 51.8 °F 94% 30.00 in 3.0 mi ENE 9.2 mph - 0.05 in Rain Light Rain
6:53 PM 53.1 °F 51.1 °F 93% 30.00 in 3.0 mi ENE 8.1 mph - 0.05 in Rain Light Rain
7:06 PM 53.6 °F 51.8 °F 94% 30.00 in 2.5 mi ENE 6.9 mph - 0.01 in Rain Light Rain
7:18 PM 53.6 °F 51.8 °F 94% 30.01 in 4.0 mi ENE 6.9 mph - 0.02 in Rain Light Rain
7:53 PM 53.1 °F 52.0 °F 96% 30.01 in 3.0 mi East 12.7 mph - 0.02 in Rain Light Rain
8:16 PM 53.6 °F 51.8 °F 94% 30.01 in 6.0 mi East 11.5 mph - 0.00 in   Overcast
8:53 PM 53.1 °F 51.1 °F 93% 30.00 in 8.0 mi East 11.5 mph - 0.00 in   Overcast
9:41 PM 53.6 °F 51.8 °F 94% 30.02 in 8.0 mi East 8.1 mph - N/A   Overcast
9:53 PM 54.0 °F 51.1 °F 90% 30.03 in 8.0 mi East 8.1 mph - N/A   Overcast
10:23 PM 53.6 °F 51.8 °F 94% 30.03 in 8.0 mi East 8.1 mph - N/A   Overcast
10:53 PM 54.0 °F 52.0 °F 93% 30.05 in 7.0 mi ENE 8.1 mph - N/A   Overcast
11:53 PM 54.0 °F 52.0 °F 93% 30.05 in 10.0 mi Variable 4.6 mph - N/A   Overcast